x

La Perouse Bank (46206) Wave Buoy

5:00am - Thu 24th Jul 2014 All times are PDT. -7 hours from GMT.

  • Sig Wave height 4.3ft
  • Peak Period 7s
  • Wind
    18mph, 22mph gusts
  • Sea Temp 55°f
  • 空気 Temp 56°f
  • Sea Pressure 1018.6mb
  • La Perouse Bank
  • La Perouse Bank

More Historic Weather Station data

Upgrade to MSW Pro to gain access to the past 30 days of data for over 8000 Wavebouys and Weather Stations around the globe.

Join Pro

Comparision Forecast

View Surf forecast
   
Thu 07/24 5:00am 4.5ft 7s 18 22 mph 1018.6mb 55f 56f
4:00am 5ft 6s 13 18 mph 1018.4mb 55f 56f
3:00am 5ft 6s 11 13 mph 1018.1mb 56f 56f
2:00am 5ft 6s 7 9 mph 1018mb 57f 56f
1:00am 4.5ft 6s 4 7 mph 1018mb 57f 57f
12:00am 4.5ft 6s 2 4 mph 1017.8mb 57f 56f
Wed 07/23 11:00pm 4.5ft 6s 7 9 mph 1017.4mb 57f 56f
10:00pm 4.5ft 6s 7 9 mph 1017.3mb 57f 56f
9:00pm 4.5ft 6s 9 11 mph 1016.6mb 57f 56f
8:00pm 4.5ft 6s 11 13 mph 1016.1mb 56f 55f
7:00pm 4.5ft 8s 11
mph
1015.9mb 55f 55f
6:00pm 4.5ft 6s 11 13 mph 1015.9mb 55f 55f
5:00pm 5ft 6s 16 18 mph 1015.8mb 55f 55f
4:00pm 5ft 6s 16 20 mph 1015.4mb 55f 56f
3:00pm 5.5ft 6s 18 22 mph 1015.1mb 55f 56f
2:00pm 5ft 6s 18 22 mph 1014.7mb 55f 56f
1:00pm 5ft 6s 20 22 mph 1014.3mb 54f 56f
12:00pm 4ft 9s 22 27 mph 1013.7mb 54f 56f
11:00am 4ft 9s 22 27 mph 1013.3mb 53f 55f
10:00am 4ft 8s 22 27 mph 1013.4mb 53f 55f
9:00am 3.5ft 9s 20 25 mph 1013.4mb 55f 55f
8:00am 3.5ft 9s 18 22 mph 1013.6mb 55f 56f
7:00am 3.5ft 8s 13 16 mph 1013.9mb 56f 56f
6:00am 4ft 9s 9 11 mph 1014mb 56f 57f
5:00am 4ft 9s 7 9 mph 1014.3mb 56f 57f
4:00am 3.5ft 9s 2 4 mph 1014.8mb 57f 57f
3:00am 4ft 10s 7
mph
1014.8mb 58f 58f
2:00am 3.5ft 10s 9 11 mph 1015mb 59f 58f
1:00am 4ft 10s 11
mph
1015.8mb 59f 58f
12:00am 3.5ft 8s 7 11 mph 1016.5mb 59f 58f
Tue 07/22 11:00pm 4ft 10s 4 7 mph 1016.7mb 59f 58f
10:00pm 3.5ft 8s 7 9 mph 1016.8mb 59f 58f
9:00pm 3.5ft 8s 2 4 mph 1017.2mb 59f 58f
8:00pm 4ft 8s 4 7 mph 1017.2mb 59f 58f
7:00pm 3.5ft 8s 4 7 mph 1017.4mb 58f 57f
6:00pm 4ft 9s 7
mph
1017.7mb 58f 57f
5:00pm 3.5ft 8s 7 9 mph 1018.1mb 58f 58f
4:00pm 3.5ft 8s 7 9 mph 1018.5mb 57f 57f
3:00pm 3.5ft 10s 9 11 mph 1018.9mb 57f 57f
2:00pm 3.5ft 11s 9 11 mph 1018.9mb 57f 57f
1:00pm 3.5ft 11s 13 16 mph 1018.5mb 56f 56f
12:00pm 3.5ft 10s 13 18 mph 1018.3mb 56f 56f
11:00am 3.5ft 9s 13 18 mph 1018mb 57f 56f
10:00am 3.5ft 9s 16 18 mph 1017.5mb 56f 56f
9:00am 3.5ft 11s 13 16 mph 1017.3mb 57f 56f
8:00am 3.5ft 11s 13 16 mph 1017.1mb 57f 56f
7:00am 3.5ft 10s 13 16 mph 1016.6mb 58f 57f
6:00am 3.5ft 12s 13 16 mph 1016.3mb 57f 57f
5:00am 3.5ft 11s 13 16 mph 1016.3mb 56f 56f
4:00am 3.5ft 10s 9 11 mph 1016.7mb 57f 57f
3:00am 3.5ft 11s 9
mph
1016.7mb 59f 57f
2:00am 3.5ft 11s 7 9 mph 1016.8mb 60f 58f
1:00am 3.5ft 9s 7 9 mph 1016.8mb 61f 58f
12:00am 3.5ft 11s 4 7 mph 1016.7mb 61f 59f
Mon 07/21 11:00pm 3.5ft 9s 4 7 mph 1016.7mb 61f 58f
10:00pm 3.5ft 9s 7
mph
1016.7mb 61f 59f
9:00pm 3.5ft 12s 7 9 mph 1016.6mb 62f 59f
8:00pm 3.5ft 9s 4 7 mph 1016.5mb 62f 60f
7:00pm 3.5ft 10s 4 7 mph 1016.8mb 63f 59f
6:00pm 3.5ft 12s 7 9 mph 1017.2mb 62f 59f
5:00pm 4ft 10s 7 9 mph 1017.6mb 61f 59f
4:00pm 4ft 10s 2 4 mph 1017.9mb 62f 59f
3:00pm 4.5ft 10s 4
mph
1018.1mb 60f 59f
2:00pm 4.5ft 10s 4
mph
1018.3mb 59f 58f
1:00pm 4.5ft 10s 4 7 mph 1018.3mb 59f 58f
12:00pm 4.5ft 11s 7
mph
1018.3mb 58f 57f
11:00am 4.5ft 10s 2 4 mph 1018.1mb 58f 57f
10:00am 5ft 11s 4
mph
1018mb 57f 56f
9:00am 4.5ft 10s 4
mph
1018mb 56f 56f
8:00am 4.5ft 9s 2 4 mph 1017.6mb 56f 55f
7:00am 4.5ft 8s  -  2 mph 1017.1mb 56f 55f
6:00am 4.5ft 10s 4 7 mph 1016.7mb 55f 55f
5:00am 5ft 10s 7 9 mph 1016.6mb 56f 55f
4:00am 5ft 10s 7 9 mph 1016.5mb 56f 55f
3:00am 4.5ft 11s 4 9 mph 1016.4mb 56f 56f
2:00am 4.5ft 10s 7 9 mph 1016.4mb 56f 56f
1:00am 4.5ft 10s 7 9 mph 1016.3mb 57f 56f
12:00am 4.5ft 11s 7 11 mph 1016mb 58f 56f
Sun 07/20 11:00pm 5ft 11s 11 13 mph 1015.8mb 58f 57f
10:00pm 4.5ft 11s 9 13 mph 1015.7mb 58f 57f
9:00pm 5ft 10s 9 11 mph 1015.4mb 58f 57f
8:00pm 5.5ft 11s 11 13 mph 1015.4mb 58f 57f
7:00pm 5ft 10s 11 13 mph 1015.5mb 58f 57f
6:00pm 5.5ft 11s 11 13 mph 1015.4mb 58f 57f
5:00pm 5ft 11s 13 16 mph 1015.5mb 58f 57f
4:00pm 6ft 11s 13 16 mph 1015.8mb 58f 58f
3:00pm 6ft 12s 13 16 mph 1015.8mb 57f 57f
2:00pm 5.5ft 11s 11 13 mph 1016mb 57f 57f